Weather History for Marion, SC

Change the Weather History Date:

Wednesday, January 9, 2013

  Actual Average (KFLO) Record (KFLO)
Temperature  
Mean Temperature 56 °F 44 °F  
Max Temperature 71 °F 55 °F 78 °F (1974)
Min Temperature 41 °F 34 °F 12 °F (1970)
Degree Days  
Heating Degree Days 9 21  
Month to date heating degree days 185  
Since 1 July heating degree days 1164  
Cooling Degree Days 0 0  
Month to date cooling degree days 0  
Year to date cooling degree days 0  
Growing Degree Days 6 (Base 50)    
Moisture  
Dew Point 51 °F    
Average Humidity 87    
Maximum Humidity 100    
Minimum Humidity 53    
Precipitation  
Precipitation 0.00 in 0.10 in 0.83 in (1997)
Month to date precipitation 0.95  
Year to date precipitation 0.95  
Sea Level Pressure  
Sea Level Pressure 30.38 in    
Wind  
Wind Speed 2 mph (NNE)    
Max Wind Speed 7 mph    
Max Gust Speed -    
Visibility 8 miles    
Events      
T = Trace of Precipitation, MM = Missing Value Source: NWS Daily Summary

Daily Weather History Graph

Daily Weather History Graph

Search for Another Location

Airport:

Trip Planner

Search our weather history database for the weather conditions in past years. The results will help you decide how hot, cold, wet, or windy it might be!

Date:

Astronomy

Jan. 09, 2013 Rise Set
Actual Time 7:23 AM EST 5:25 PM EST
Civil Twilight 6:56 AM EST 5:53 PM EST
Nautical Twilight 6:25 AM EST 6:24 PM EST
Astronomical Twilight 5:55 AM EST 6:54 PM EST
Moon 5:01 AM EST (1/9) 3:25 PM EST (1/9)
Length of Visible Light 10h 56m
Length of Day
10h 01m
Waning Crescent, 6% of the Moon is Illuminated
Jan 9
Waning Crescent
Jan 11
New
Jan 18
First Quarter
Jan 26
Full
Feb 3
Last Quarter

Hourly Weather History & Observations

Time (EST) Temp. Windchill Dew Point Humidity Pressure Visibility Wind Dir Wind Speed Gust Speed Precip Events Conditions
12:15 AM 42.8 °F 41.1 °F 42.8 °F 100% 30.40 in 7.0 mi North 3.5 mph - N/A   Clear
12:35 AM 42.8 °F 40.1 °F 42.8 °F 100% 30.38 in 7.0 mi NNE 4.6 mph - N/A   Clear
1:35 AM 42.8 °F - 42.8 °F 100% 30.37 in 5.0 mi Calm Calm - N/A   Clear
1:55 AM 41.0 °F 38.0 °F 41.0 °F 100% 30.37 in 7.0 mi East 4.6 mph - N/A   Clear
2:15 AM 42.8 °F - 42.8 °F 100% 30.37 in 7.0 mi Calm Calm - N/A   Clear
2:35 AM 42.8 °F 41.1 °F 42.8 °F 100% 30.37 in 7.0 mi NNE 3.5 mph - N/A   Clear
2:55 AM 42.8 °F 41.1 °F 42.8 °F 100% 30.36 in 5.0 mi East 3.5 mph - N/A   Clear
3:15 AM 44.6 °F 43.1 °F 44.6 °F 100% 30.36 in 7.0 mi East 3.5 mph - N/A   Clear
3:35 AM 44.6 °F 43.1 °F 44.6 °F 100% 30.36 in 7.0 mi ENE 3.5 mph - N/A   Mostly Cloudy
3:55 AM 46.4 °F - 46.4 °F 100% 30.36 in 7.0 mi Calm Calm - N/A   Overcast
4:15 AM 46.4 °F - 46.4 °F 100% 30.36 in 7.0 mi Calm Calm - N/A   Scattered Clouds
4:35 AM 44.6 °F - 44.6 °F 100% 30.36 in 7.0 mi Calm Calm - N/A   Mostly Cloudy
4:55 AM 44.6 °F - 44.6 °F 100% 30.37 in 7.0 mi Calm Calm - N/A   Overcast
5:15 AM 44.6 °F 42.2 °F 44.6 °F 100% 30.37 in 7.0 mi North 4.6 mph - N/A   Mostly Cloudy
5:35 AM 44.6 °F 43.1 °F 44.6 °F 100% 30.37 in 7.0 mi North 3.5 mph - N/A   Mostly Cloudy
5:55 AM 46.4 °F - 46.4 °F 100% 30.37 in 7.0 mi Calm Calm - N/A   Mostly Cloudy
6:15 AM 46.4 °F - 46.4 °F 100% 30.38 in 7.0 mi Calm Calm - N/A   Scattered Clouds
6:35 AM 46.4 °F - 46.4 °F 100% 30.39 in 7.0 mi Calm Calm - N/A   Mostly Cloudy
6:55 AM 46.4 °F 45.2 °F 46.4 °F 100% 30.39 in 7.0 mi North 3.5 mph - N/A   Overcast
7:15 AM 46.4 °F 45.2 °F 46.4 °F 100% 30.39 in 7.0 mi North 3.5 mph - N/A   Overcast
7:35 AM 46.4 °F 45.2 °F 46.4 °F 100% 30.40 in 7.0 mi North 3.5 mph - N/A   Mostly Cloudy
7:55 AM 46.4 °F 44.3 °F 46.4 °F 100% 30.40 in 7.0 mi NNE 4.6 mph - N/A   Mostly Cloudy
8:15 AM 46.4 °F 45.2 °F 46.4 °F 100% 30.40 in 5.0 mi NNE 3.5 mph - N/A   Scattered Clouds
8:35 AM 48.2 °F - 48.2 °F 100% 30.41 in 5.0 mi NE 3.5 mph - N/A   Mostly Cloudy
8:55 AM 50.0 °F - 50.0 °F 100% 30.41 in 7.0 mi NNE 4.6 mph - N/A   Overcast
9:35 AM 51.8 °F - 50.0 °F 94% 30.43 in 7.0 mi North 5.8 mph - N/A   Overcast
9:55 AM 53.6 °F - 50.0 °F 88% 30.42 in 7.0 mi NE 4.6 mph - N/A   Overcast
10:15 AM 57.2 °F - 51.8 °F 82% 30.41 in 10.0 mi NE 3.5 mph - N/A   Overcast
10:35 AM 59.0 °F - 51.8 °F 77% 30.41 in 10.0 mi North 4.6 mph - N/A   Mostly Cloudy
10:55 AM 60.8 °F - 51.8 °F 72% 30.40 in 10.0 mi Calm Calm - N/A   Scattered Clouds
11:15 AM 62.6 °F - 51.8 °F 68% 30.40 in 10.0 mi Calm Calm - N/A   Clear
11:35 AM 64.4 °F - 51.8 °F 64% 30.40 in 10.0 mi North 3.5 mph - N/A   Clear
11:55 AM 64.4 °F - 53.6 °F 68% 30.40 in 10.0 mi NNW 4.6 mph - N/A   Clear
12:35 PM 66.2 °F - 53.6 °F 64% 30.39 in 10.0 mi North 4.6 mph - N/A   Clear
1:15 PM 69.8 °F - 53.6 °F 56% 30.38 in 10.0 mi NW 3.5 mph - N/A   Clear
1:35 PM 69.8 °F - 55.4 °F 60% 30.37 in 10.0 mi Calm Calm - N/A   Clear
1:55 PM 69.8 °F - 53.6 °F 56% 30.36 in 10.0 mi North 6.9 mph - N/A   Clear
2:15 PM 71.6 °F - 53.6 °F 53% 30.36 in 10.0 mi NNW 3.5 mph - N/A   Clear
2:35 PM 69.8 °F - 53.6 °F 56% 30.37 in 10.0 mi North 5.8 mph - N/A   Clear
2:55 PM 71.6 °F - 53.6 °F 53% 30.37 in 10.0 mi North 4.6 mph - N/A   Clear
3:15 PM 69.8 °F - 53.6 °F 56% 30.37 in 10.0 mi NNW 5.8 mph - N/A   Clear
3:35 PM 69.8 °F - 53.6 °F 56% 30.38 in 10.0 mi Calm Calm - N/A   Clear
3:55 PM 69.8 °F - 53.6 °F 56% 30.38 in 10.0 mi Calm Calm - N/A   Clear
4:15 PM 68.0 °F - 53.6 °F 60% 30.38 in 10.0 mi Calm Calm - N/A   Clear
4:35 PM 64.4 °F - 59.0 °F 83% 30.37 in 10.0 mi SE 4.6 mph - N/A   Clear
4:55 PM 64.4 °F - 57.2 °F 77% 30.37 in 10.0 mi ESE 3.5 mph - N/A   Clear
5:15 PM 64.4 °F - 55.4 °F 73% 30.37 in 10.0 mi Calm Calm - N/A   Clear
5:35 PM 62.6 °F - 57.2 °F 82% 30.38 in 10.0 mi Calm Calm - N/A   Clear
5:55 PM 60.8 °F - 57.2 °F 88% 30.38 in 10.0 mi Calm Calm - N/A   Scattered Clouds
6:15 PM 60.8 °F - 57.2 °F 88% 30.38 in 10.0 mi Calm Calm - N/A   Scattered Clouds
6:55 PM 59.0 °F - 57.2 °F 94% 30.38 in 10.0 mi Calm Calm - N/A   Clear
7:15 PM 59.0 °F - 57.2 °F 94% 30.38 in 10.0 mi Calm Calm - N/A   Clear
7:35 PM 59.0 °F - 57.2 °F 94% 30.39 in 10.0 mi Calm Calm - N/A   Scattered Clouds
7:55 PM 59.0 °F - 57.2 °F 94% 30.40 in 10.0 mi Calm Calm - N/A   Scattered Clouds
8:15 PM 59.0 °F - 57.2 °F 94% 30.41 in 10.0 mi Calm Calm - N/A   Clear
8:35 PM 57.2 °F - 55.4 °F 94% 30.40 in 10.0 mi Calm Calm - N/A   Scattered Clouds
8:55 PM 59.0 °F - 55.4 °F 88% 30.40 in 10.0 mi Calm Calm - N/A   Clear
9:35 PM 57.2 °F - 57.2 °F 100% 30.39 in 7.0 mi South 4.6 mph - N/A   Clear
9:55 PM 57.2 °F - 57.2 °F 100% 30.39 in 7.0 mi SSE 3.5 mph - N/A   Clear
10:15 PM 59.0 °F - 55.4 °F 88% 30.39 in 10.0 mi Calm Calm - N/A   Clear
10:55 PM 57.2 °F - 55.4 °F 94% 30.40 in 10.0 mi Calm Calm - N/A   Clear
11:15 PM 55.4 °F - 55.4 °F 100% 30.40 in 10.0 mi Calm Calm - N/A   Clear
11:35 PM 55.4 °F - 55.4 °F 100% 30.41 in 10.0 mi Calm Calm - N/A   Clear